Погода в Орта-Стале

Россия / Республика Дагестан     41°42′15″N   48°10′11″E
темп.,
°C
ветер,
м/с
пор.,
м/с
влажн.,
%
обл.,
%
осадки,
мм/ч
давл.,
гПа
погр.,
м
17 апреля, сб
сб1700:00+11юз11695 0.0 101911
03:00+10юз11684 0.0 101911
06:00+12юз11617 0.0 101911
09:00+18в22417 0.0 1018485
12:00+23в4437100 0.0 1016956
15:00+22всв424224 0.0 1016717
18:00+16ссв236177 0.0 101882
21:00+15зсз2258100 0.0 101918
18 апреля, вс
вс1800:00+15зсз335768 0.0 101828
03:00+13св0165100 0.0 101811
06:00+13ююв1169100 0.0 101950
09:00+16всв2162100 0.0 1018518
12:00+17всв2158100 0.0 1016834
15:00+18св43528 0.2 1016899
18:00+15всв3456100 0.0 1018132
21:00+13зюз1158100 0.0 101819
19 апреля, пн
пн1900:00+12зюз2266100 0.0 101811
03:00+13ююз2270100 0.1 101721
06:00+12ююз116887 0.0 101841
09:00+17в225094 0.0 1018561
12:00+21в434493 0.0 10161052
15:00+21в444510 0.0 1015932
18:00+16в236091 0.0 1016109
21:00+13ссв017112 0.0 101610
20 апреля, вт
вт2000:00+12зсз11736 0.0 101510
03:00+11ююз0073100 0.0 101510
06:00+13ю1170100 0.0 101417
09:00+18вюв2354100 0.0 1012380
12:00+22в334842 0.0 1009619
15:00+24св324628 0.0 1006450
18:00+17ссв2265100 0.0 100654
21:00+15с1167100 0.0 100741
21 апреля, ср
ср2100:00+15сз116894 0.0 100715
03:00+13ссз1374100 0.0 101169
06:00+13сз5127915 0.0 1015525
09:00+17с676713 0.0 1016684
12:00+19ссв786024 0.0 10171015
15:00+18ссв666092 0.0 10171046
18:00+15с5771100 0.1 1019612
21:00+13юз118323 0.1 101930